JILIN-01 GAOFEN 3B (46454 NORAD) Tracking and Keplerian Element Data

This shows tracking and keplerian element data for the satellite.

Feedback or suggestion? Click here.




ElementValue
Catalog46454
NameJILIN-01 GAOFEN 3B
Epoch Orbit131
Epoch Day267.74067403
Epoch Year2020
RAAN323.2491
Inclination97.5375
Eccentricity0.001188
Argument of Perigee252.2981
Mean Anonmoly215.845
Mean Motion15.0890119
Decay Rate-6.5E-07
L11 46454U 20065A 20267.74067403 -.00000065 00000-0 -10631-6 0 9994
L22 46454 97.5375 323.2491 0011880 252.2981 215.8450 15.08901190 1316

Live tracking and technical data element details for JILIN-01 GAOFEN 3B (NORAD 46454). JILIN-01 GAOFEN 3B can be tracked NOW for your location showing map with azimuth and elevation plus other details from your city location.

Track the satellite on the map from your city or location and see movement details for azimuth, elevation, latitude, longitude, range, height, and movement on the map or in text.







IsCatalogInMostPopularTable: catalog: 46454, numindb: 2
Update: records affected: 1



GetName: 46454 JILIN-01 GAOFEN 3B

Hit Count: updated at: Sat, 26 Sep 2020 14:01:47 GMT